Regional Weather Roundup
Issued by NWS Cleveland, OH

Home | Current Version | Previous Version | Text Only | Print | Product List | Glossary Off
Versions: 1 2 3 4 5 6 7 8 9 10 11 12 13 14 15 16 17 18 19 20 21 22 23 24 25 26 27 28 29 30 31 32 33 34 35 36 37 38 39 40 41 42 43 44 45 46 47 48 49 50

000
ASUS41 KCLE 250402
RWRCLE
OHIO REGIONAL WEATHER ROUNDUP
NATIONAL WEATHER SERVICE CLEVELAND, OH
1200 AM EDT FRI JUL 25 2014

NOTE: "FAIR" INDICATES FEW OR NO CLOUDS BELOW 12,000 FEET WITH NO
SIGNIFICANT WEATHER AND/OR OBSTRUCTIONS TO VISIBILITY.

OHZ001>008-015>018-024>027-034-035-043-044-250500-
   NORTHWEST OHIO

CITY           SKY/WX    TMP DP  RH WIND       PRES   REMARKS
DEFIANCE       CLEAR     58  53  84 CALM      30.09R
FINDLAY        CLEAR     59  52  77 CALM      30.08R
TOLEDO EXPRESS CLEAR     57  53  86 CALM      30.08R
TOLEDO EXEC    CLEAR     62  51  67 CALM      30.09R
LIMA           CLEAR     59  52  77 CALM      30.09R
$$

OHZ009>014-019>023-028>033-038-089-250500-
   NORTHEAST OHIO

CITY           SKY/WX    TMP DP  RH WIND       PRES   REMARKS
CLE-HOPKINS    CLEAR     58  51  78 CALM      30.10S
CLE-LAKEFRONT  CLEAR     67  53  61 N6        30.07S
CUY CO. ARPT   NOT AVBL
LORAIN-ELYRIA  CLEAR     57  51  80 CALM      30.08F
ASHTABULA      CLEAR     53  50  89 CALM      30.08F
AKRON-CANTON   CLEAR     60  48  64 N3        30.09S
WOOSTER        CLEAR     53  49  86 NE3       30.09F
MANSFIELD      CLEAR     54  50  86 NE3       30.09F
YOUNGSTOWN     CLEAR     54  49  83 CALM      30.08S
$$

OHZ042-051>053-060>062-070>072-077>081-250500-
  SOUTHWEST OHIO

CITY           SKY/WX    TMP DP  RH WIND       PRES   REMARKS
CINC-COVINGTON MOCLDY    67  52  58 N6        30.07F
CINC-LUNKEN    CLEAR     59  57  93 CALM      30.08S
HAMILTON       CLEAR     59  56  89 CALM      30.08F
DAYTON         CLEAR     60  52  74 E6        30.10S
WRIGHT-PAT AFB CLEAR     60  53  76 N5        30.09F
DAYTON GENERAL CLEAR     61  52  72 NE6       30.08S
WILMINGTON     CLEAR     56  52  86 NE6       30.08S
$$

OHZ036-037-039>041-045>050-054>059-063>069-073>076-082>088-250500-
  CENTRAL AND SOUTHEAST OHIO

CITY           SKY/WX    TMP DP  RH WIND       PRES   REMARKS
COLUMBUS       CLEAR     64  50  60 NE5       30.07F
OSU AIRPORT    CLEAR     58  51  78 N7        30.08F
BOLTON FIELD   CLEAR     60  51  71 N6        30.08S
RICKENBACK AFB CLEAR     64  48  56 N7        30.07S
NEWARK         CLEAR     58  52  80 CALM      30.07F
MARION         CLEAR     57  51  80 E3        30.08F
LANCASTER      CLEAR     59  54  83 CALM      30.07F
ZANESVILLE     CLEAR     60  50  69 N3        30.07F
NEW PHILLY     CLEAR     57  53  86 CALM      30.08F
$$



USA.gov is the U.S. government's official web portal to all federal, state and local government web resources and services.